CZ-6A DEB, 54425

Orbit data source: Space-Track

CZ-6A DEB, 54425 is space debris in SSO originally from a launch on Fri, 11 Nov 2022 UTC launched from the Taiyaun Space Center, China (TSC). Debris objects in space refer to the collection of defunct objects orbiting the Earth. Examples of debris include non-operational satellites, rocket bodies, and fragments generated from explosions, collisions, or faulty payload assembly.

Loading next visibility...
Identifier
54425, 2022-151EZ
Orbit
SSO
Country
Flag of CNCN / PRC
Related business
Manufacturer
SAST
Mission
Spacecraft
Bus & Motor
Unknown
Mass
Unknown
Launch date (UTC)
2022-11-11 (4 years ago)
Launch vehicle
Unknown
Launch site
Taiyaun Space Center, China (TSC)
Object type
Payload
Rocket body
Debris
Shape & HBR
Unknown shape, 0.1 m
Radar Cross Section
Medium (>0.1 m² and <1 m²)

Expand to show TLE details & history
Last TLE update: 16 hours ago

TLE from 16 hours ago
0 CZ-6A DEB
1 54425U 22151EZ  26265.27933768  .00001486  00000-0  28202-3 0  9993
2 54425  98.8627  22.7341 0121015 281.7988  76.9658 14.61424209204880
Epoch: 2026-09-22T06:42Z
TLE epoch observation values (Epoch: 2026-09-22T06:42:14.775Z)
Latitude
-0.00001°
Longitude
-78.97455°
Altitude
673.241 km
Speed
7.53 km/s
True Right ascension
01h 30m 56s
True Declination
0° 00' 00"
Sunlit
Object was in full shadow at epoch
Visualization orbit readout
Latitude
Unknown
Longitude
Unknown
Altitude
Unknown
Speed
Unknown
Apparent Right ascension
Unknown
Apparent Declination
Unknown
Sunlit
N/A
Visualization observer readout
Local Sidereal Time
15:37:09
Azimuth
Unknown
Elevation
Unknown
Doppler factor
Unknown
Orbital elements
Apogee altitude
771.172 km
Perigee altitude
600.207 km
Semi-major axis
7,063.826 km
Eccentricity
0.0121
Inclination
98.8627°
RAAN
22.7341°
Arg. of periapsis
281.7988°
True anomaly
78.3213°
Mean anomaly
76.9658°
Eccentric anomaly
77.6431°
Mean motion
3.65581 °/min
Orbital period
98.47 mins
BSTAR
0.00028202
Loading maneuver chart data...
Computing Atmospheric mass density...
Loading historical data...
Loading historical data...
Loading historical data...
Loading historical data...
Loading historical data...
Loading historical data...
Loading historical data...

Documentation

Showing up to 5 results
|